Location: Detroit
(42.3310°N, 83.0460°W)
Time: 10:37:47
(UTC-05:00)

Vanguard 1 - All Passes

Search period start: 27 January 2023 00:00
Search period end: 06 February 2023 00:00
Orbit: 649 x 3831 km, 34.3° (Epoch: 26 January)

Date Brightness Start Highest point End Pass type
(mag) Time Alt. Az. Time Alt. Az. Time Alt. Az.
27 Jan - 06:06:04 10° SSW 06:14:21 36° SE 06:28:17 10° E visible
27 Jan - 08:24:09 10° WSW 08:35:56 63° S 08:56:27 10° E daylight
27 Jan - 10:44:40 10° W 11:00:24 62° SSW 11:23:13 10° ESE daylight
27 Jan - 13:07:36 10° W 13:25:23 40° SW 13:45:35 10° SSE daylight
27 Jan - 15:38:20 10° WSW 15:48:23 15° SW 15:58:19 10° SSW daylight
28 Jan - 04:12:55 10° SE 04:15:43 12° SE 04:18:57 10° ESE visible
28 Jan - 06:25:53 10° SW 06:34:32 43° SSE 06:49:43 10° E visible
28 Jan - 08:44:34 10° WSW 08:56:41 64° S 09:17:39 10° E daylight
28 Jan - 11:05:23 10° W 11:21:17 57° SSW 11:43:47 10° SE daylight
28 Jan - 13:29:01 10° W 13:45:54 34° SW 14:04:46 10° SSE daylight
29 Jan - 04:30:26 10° S 04:35:27 18° SE 04:42:20 10° E visible
29 Jan - 06:45:55 10° SW 06:54:51 50° SSE 07:11:01 10° E visible
29 Jan - 09:05:03 10° WSW 09:17:31 64° S 09:38:45 10° ESE daylight
29 Jan - 11:26:10 10° W 11:42:08 51° SSW 12:04:06 10° SE daylight
29 Jan - 13:50:51 10° W 14:06:21 27° SW 14:23:21 10° S daylight
30 Jan - 04:49:19 10° S 04:55:18 24° SE 05:04:23 10° E visible
30 Jan - 07:06:05 10° WSW 07:15:20 56° SSE 07:32:17 10° E visible
30 Jan - 09:25:35 10° W 09:38:22 62° S 09:59:44 10° ESE daylight
30 Jan - 11:47:03 10° W 12:02:54 45° SSW 12:24:05 10° SE daylight
30 Jan - 14:13:26 10° W 14:26:43 20° SW 14:41:00 10° S daylight
31 Jan - 05:08:46 10° SSW 05:15:18 31° SE 05:25:58 10° E visible
31 Jan - 07:26:23 10° WSW 07:35:55 59° S 07:53:30 10° E daylight
31 Jan - 09:46:10 10° W 09:59:13 59° SSW 10:20:33 10° ESE daylight
31 Jan - 12:08:08 10° W 12:23:36 38° SSW 12:43:42 10° SSE daylight
31 Jan - 14:37:43 10° WSW 14:47:02 14° SW 14:56:51 10° SSW daylight
01 Feb - 05:28:32 10° SW 05:35:26 38° SSE 05:47:19 10° E visible
01 Feb - 07:46:45 10° WSW 07:56:35 61° S 08:14:40 10° ESE daylight
01 Feb - 10:06:49 10° W 10:20:03 54° SSW 10:41:09 10° SE daylight
01 Feb - 12:29:28 10° W 12:44:15 32° SW 13:02:49 10° SSE daylight
02 Feb - 03:33:50 10° SSE 03:36:51 13° SE 03:40:31 10° ESE visible
02 Feb - 05:48:32 10° SW 05:55:43 45° SSE 06:08:34 10° E visible
02 Feb - 08:07:11 10° WSW 08:17:18 61° S 08:35:46 10° ESE daylight
02 Feb - 10:27:32 10° W 10:40:51 48° SSW 11:01:28 10° SE daylight
02 Feb - 12:51:16 10° W 13:04:50 25° SW 13:21:18 10° S daylight
03 Feb - 03:52:20 10° S 03:56:45 19° SE 04:02:51 10° E visible
03 Feb - 06:08:41 10° WSW 06:16:07 51° SSE 06:29:44 10° E visible
03 Feb - 08:27:40 10° W 08:38:03 59° S 08:56:44 10° ESE daylight
03 Feb - 10:48:23 10° W 11:01:39 42° SSW 11:21:28 10° SE daylight
03 Feb - 13:13:54 10° WSW 13:25:23 19° SW 13:38:44 10° S daylight
04 Feb - 04:11:40 10° SSW 04:16:45 26° SE 04:24:26 10° E visible
04 Feb - 06:28:56 10° WSW 06:36:37 55° S 06:50:53 10° E visible
04 Feb - 08:48:12 10° W 08:58:48 55° S 09:17:33 10° ESE daylight
04 Feb - 11:09:24 10° W 11:22:23 35° SSW 11:41:02 10° SSE daylight
04 Feb - 13:38:34 10° WSW 13:45:56 13° SW 13:53:57 10° SSW daylight
05 Feb - 04:31:23 10° SSW 04:36:52 33° SSE 04:45:43 10° E visible
05 Feb - 06:49:17 10° WSW 06:57:12 57° S 07:11:58 10° ESE visible
05 Feb - 09:08:47 10° W 09:19:35 50° SSW 09:38:08 10° SE daylight
05 Feb - 11:30:45 10° W 11:43:06 29° SSW 12:00:04 10° SSE daylight
